User: anonymous   Login
Location: Lafig�re
(44.4503°N, 4.0357°E)
Time: 00:01:11
(UTC+00:00)
Language:

Cosmos 2278 Rocket - Orbit

View from above orbital plane
View from above orbital plane
View from above satellite
View from above satellite

Ground track
Ground track

The orbit data is extracted from the following two-line orbital elements,

1 23088U 94023B   20332.24242923 -.00000368  00000-0 -16642-3 0  9998
2 23088  70.9972 159.4386 0004580 316.2866  43.7893 14.14685461373605
Epoch (UTC): 27 November 2020 05:49:05
Eccentricity: 0.0004580
inclination: 70.9972°
perigee height: 840 km
apogee height: 846 km
right ascension of ascending node: 159.4386°
argument of perigee: 316.2866°
revolutions per day: 14.14685461
mean anomaly at epoch: 43.7893°
orbit number at epoch: 37360

The dashed part of the orbit path shows where the satellite is in the earth's shadow,  

DLR